Regional Weather Roundup
Issued by NWS

Home | Current Version | Previous Version | Text Only | Print | Product List | Glossary On
Versions: 1 2 3 4 5 6 7 8 9 10 11 12 13 14 15 16 17 18 19 20 21 22 23 24 25 26 27 28 29 30 31 32 33 34 35 36 37 38 39 40 41 42 43 44 45 46 47 48 49 50
000
ASUS43 KLSX 221507
RWRMO

WEATHER SUMMARY FOR MISSOURI
NATIONAL WEATHER SERVICE SPRINGFIELD MO
900 AM CST WED NOV 22 2017

NOTE: "FAIR" INDICATES FEW OR NO CLOUDS BELOW 12,000 FEET WITH NO
       SIGNIFICANT WEATHER AND/OR OBSTRUCTIONS TO VISIBILITY.
       CURRENT SKY AND/OR WEATHER CONDITIONS ARE NOT AVAILABLE FOR
       CHILLICOTHE AND FARMINGTON.

MOZ001>031-035>038-043-044-053-054-221600-
...NORTHERN AND WESTERN MISSOURI...

CITY           SKY/WX    TMP DP  RH WIND       PRES   REMARKS
KANSAS CTY INT CLOUDY    25  16  68 CALM      30.44R
KANSAS C DTWN  CLOUDY    27  14  58 N3        30.46R
LEE`S SUMMIT   SUNNY     27  16  63 CALM      30.44R
ST JOSEPH      CLOUDY    23  15  71 CALM      30.46R
CHILLICOTHE      N/A     25  16  68 CALM      30.45R
KIRKSVILLE     SUNNY     25  16  68 NE5       30.42R WCI  19

$$
MOZ066>068-077>081-088>096-101>105-221600-
...SOUTHWEST MISSOURI...

CITY           SKY/WX    TMP DP  RH WIND       PRES   REMARKS
SPRINGFIELD    SUNNY     29  19  66 NE6       30.38S WCI  23
JOPLIN         SUNNY     28  20  71 N6        30.42F WCI  22
BRANSON        SUNNY     28  18  64 CALM      30.38F

$$
MOZ032>034-039>042-045>050-055>058-069>072-221600-
...CENTRAL MISSOURI...

CITY           SKY/WX    TMP DP  RH WIND       PRES   REMARKS
COLUMBIA       SUNNY     27  15  61 N5        30.42S WCI  22
JEFFERSON CITY SUNNY     28  16  60 N3        30.45S
ROLLA          SUNNY     27  17  66 NE7       30.41R WCI  19
SEDALIA        SUNNY     28  18  66 NE6       30.45R WCI  22
WHITEMAN AFB   SUNNY     26  16  66 NE5       30.40R WCI  20
WARRENSBURG    SUNNY     27  18  69 CALM      30.45R
OSAGE BEACH    SUNNY     27  18  69 E7        30.43S WCI  19

$$
MOZ051-052-059>065-221600-
...EAST CENTRAL MISSOURI...

CITY           SKY/WX    TMP DP  RH WIND       PRES   REMARKS
ST LOUIS INTL  MOSUNNY   28  19  69 NW5       30.43S WCI  23
SPIRIT OF STL  SUNNY     30  19  63 CALM      30.44S
ST CHARLES     SUNNY     29  17  61 CALM      30.44R

$$
MOZ072>076-082>087-097>100-106>115-221600-
...SOUTH CENTRAL AND SOUTHEAST MISSOURI...

CITY           SKY/WX    TMP DP  RH WIND       PRES   REMARKS
CAPE GIRARDEAU SUNNY     32  21  64 N8        30.41S WCI  25
FARMINGTON     SUNNY     28  20  71 N7        30.40S WCI  21
POPLAR BLUFF   MOSUNNY   35  21  56 N10       30.40F WCI  27
WEST PLAINS    MOSUNNY   31  18  58 N12       30.39R WCI  22

$$



USA.gov is the U.S. government's official web portal to all federal, state and local government web resources and services.